FW0689 Weather Reports


Display with metric or nautical units.
time (UTC)temp
F
wind
direction
speed
MPH
gust
MPH
rain 1hr
in
rain 24hr
in
rain mn
in
humidity
%
barometer
mb
20260509130247 61 207 0.0 0.0 0.00 0.00 0.00 42 1022.9
20260509125228 62 112 0.0 0.0 0.00 0.00 0.00 42 1022.9
20260509121428 61 100 0.0 0.0 0.00 0.00 0.00 42 1023.2
20260509120427 61 314 0.0 0.0 0.00 0.00 0.00 41 1023.3
20260509115428 60 96 0.0 0.0 0.00 0.00 0.00 41 1023.3
20260509114527 60 108 0.0 0.0 0.00 0.00 0.00 41 1023.4
20260509113529 61 15 0.0 0.0 0.00 0.00 0.00 41 1023.5
20260509112529 61 71 0.0 0.0 0.00 0.00 0.00 41 1023.7
20260509111628 59 57 0.0 0.0 0.00 0.00 0.00 40 1023.8
20260509110626 59 173 0.0 0.0 0.00 0.00 0.00 41 1023.9
20260509105629 59 88 0.0 0.0 0.00 0.00 0.00 40 1024.0
20260509104643 58 66 0.0 0.0 0.00 0.00 0.00 40 1024.0
20260509103729 58 120 0.0 0.0 0.00 0.00 0.00 40 1024.2
20260509102728 58 102 0.0 0.0 0.00 0.00 0.00 40 1024.2
20260509100827 58 106 0.0 0.0 0.00 0.00 0.00 40 1024.2
20260509095829 59 48 0.0 0.0 0.00 0.00 0.00 39 1024.1
20260509094927 59 65 0.0 0.0 0.00 0.00 0.00 39 1024.1
20260509093928 59 59 0.0 0.0 0.00 0.00 0.00 39 1024.1
20260509093028 58 90 0.0 0.0 0.00 0.00 0.00 39 1024.1
20260509092029 58 96 0.0 0.0 0.00 0.00 0.00 39 1024.3
20260509091127 58 58 0.0 0.0 0.00 0.00 0.00 39 1024.3
20260509090127 58 15 0.0 0.0 0.00 0.00 0.00 39 1024.4
20260509085130 58 91 0.0 0.0 0.00 0.00 0.00 38 1024.3
20260509084128 57 63 0.0 0.0 0.00 0.00 0.00 38 1024.5
20260509082130 55 53 0.0 0.0 0.00 0.00 0.00 37 1024.6
20260509081228 54 61 0.0 0.0 0.00 0.00 0.00 38 1024.7
20260509080245 54 84 0.0 0.0 0.00 0.00 0.00 38 1024.7
20260509075328 54 58 0.0 0.0 0.00 0.00 0.00 38 1024.8
20260509074427 54 28 0.0 0.0 0.00 0.00 0.00 38 1024.9
20260509073428 53 56 0.0 0.0 0.00 0.00 0.00 38 1025.0
20260509072429 53 89 0.0 0.0 0.00 0.00 0.00 38 1024.9
20260509070429 52 78 0.0 0.0 0.00 0.00 0.00 38 1025.1
20260509065429 52 61 0.0 0.0 0.00 0.00 0.00 37 1025.0
20260509064428 50 90 0.0 0.0 0.00 0.00 0.00 38 1025.0
20260509063527 50 99 0.0 0.0 0.00 0.00 0.00 38 1025.1
20260509062529 48 67 0.0 0.0 0.00 0.00 0.00 38 1024.8
20260509061627 48 73 0.0 0.0 0.00 0.00 0.00 39 1024.8
20260509060627 47 68 0.0 0.0 0.00 0.00 0.00 39 1024.9
20260509055629 47 67 0.0 0.0 0.00 0.00 0.00 39 1024.7
20260509054628 47 74 0.0 0.0 0.00 0.00 0.00 39 1024.7
20260509052627 46 45 0.0 0.0 0.00 0.00 0.00 39 1024.7
20260509051629 45 45 0.0 0.0 0.00 0.00 0.00 40 1024.7
20260509050629 44 45 0.0 0.0 0.00 0.00 0.00 40 1024.4
20260509045628 42 45 0.0 0.0 0.00 0.00 0.00 41 1024.4
20260509044628 41 45 0.0 0.0 0.00 0.00 0.00 41 1024.2
20260509043630 40 45 0.0 0.0 0.00 0.00 0.00 42 1024.1
20260509042728 40 45 0.0 0.0 0.00 0.00 0.00 42 1024.0
20260509041727 40 67 0.0 0.0 0.00 0.00 0.00 42 1024.1
20260509040728 40 67 0.0 0.0 0.00 0.00 0.00 42 1024.1
20260509035729 40 67 0.0 0.0 0.00 0.00 0.00 42 1024.0
20260509034729 40 67 0.0 0.0 0.00 0.00 0.00 42 1024.0
20260509033828 40 67 0.0 0.0 0.00 0.00 0.00 42 1024.3
20260509032829 40 67 0.0 0.0 0.00 0.00 0.00 42 1024.1
20260509031829 40 67 0.0 0.0 0.00 0.00 0.00 42 1024.3
20260509030828 41 67 0.0 0.0 0.00 0.00 0.00 41 1024.4
20260509025827 41 67 0.0 0.0 0.00 0.00 0.00 41 1024.4
20260509024828 42 67 0.0 0.0 0.00 0.00 0.00 41 1024.6
20260509023829 42 67 0.0 0.0 0.00 0.00 0.00 41 1024.5
20260509022829 42 67 0.0 0.0 0.00 0.00 0.00 40 1024.4
20260509021928 42 67 0.0 0.0 0.00 0.00 0.00 41 1024.5
20260509020931 41 67 0.0 0.0 0.00 0.00 0.00 41 1024.3
20260509015929 41 90 0.0 0.0 0.00 0.00 0.00 41 1024.3
20260509014928 41 90 0.0 0.0 0.00 0.00 0.00 41 1024.4
20260509014027 40 90 0.0 0.0 0.00 0.00 0.00 41 1024.4
20260509013030 41 90 0.0 0.0 0.00 0.00 0.00 41 1024.3
20260509012029 41 90 0.0 0.0 0.00 0.00 0.00 41 1024.5
20260509011028 41 90 0.0 0.0 0.00 0.00 0.00 41 1024.6
20260509005028 42 90 0.0 0.0 0.00 0.00 0.00 41 1024.6
20260509004029 42 90 0.0 0.0 0.00 0.00 0.00 41 1024.5
20260509003028 43 90 0.0 0.0 0.00 0.00 0.00 41 1024.5
20260509001030 42 90 0.0 0.0 0.00 0.00 0.00 41 1024.3
20260509000128 42 90 0.0 0.0 0.00 0.00 0.00 41 1024.3
20260508235128 42 90 0.0 0.0 0.00 0.00 0.00 40 1024.4
20260508234227 42 90 0.0 0.0 0.00 0.00 0.00 41 1024.5
20260508232327 43 90 0.0 0.0 0.00 0.00 0.00 41 1024.5
20260508231327 44 90 0.0 0.0 0.00 0.00 0.00 41 1024.6
20260508230427 45 90 0.0 0.0 0.00 0.00 0.00 41 1024.7
20260508225428 45 90 0.0 0.0 0.00 0.00 0.00 40 1024.7
20260508224429 46 90 0.0 0.0 0.00 0.00 0.00 40 1024.7
20260508223429 47 106 0.0 0.0 0.00 0.00 0.00 40 1024.7
20260508222430 47 90 0.0 0.0 0.00 0.00 0.00 40 1024.7
20260508220430 47 89 0.0 0.0 0.00 0.00 0.00 40 1024.6
20260508215512 48 90 0.0 0.0 0.00 0.00 0.00 40 1024.6
20260508214512 48 90 0.0 0.0 0.00 0.00 0.00 40 1024.7
20260508213510 48 90 0.0 0.0 0.00 0.00 0.00 40 1024.7
20260508211512 49 82 0.0 0.0 0.00 0.00 0.00 40 1024.7
20260508210512 48 86 0.0 0.0 0.00 0.00 0.00 40 1024.5
20260508204512 48 90 0.0 0.0 0.00 0.00 0.00 40 1024.5
20260508203512 49 90 0.0 0.0 0.00 0.00 0.00 41 1024.5
20260508201611 49 66 0.0 0.0 0.00 0.00 0.00 41 1024.5
20260508200709 50 90 0.0 0.0 0.00 0.00 0.00 41 1024.6
20260508193713 51 112 0.0 0.0 0.00 0.00 0.00 42 1024.3
20260508192811 52 112 0.0 0.0 0.00 0.00 0.00 41 1024.3
20260508191810 52 112 0.0 0.0 0.00 0.00 0.00 41 1024.1
20260508190812 53 112 0.0 0.0 0.00 0.00 0.00 42 1024.0
20260508185814 53 112 0.0 0.0 0.00 0.00 0.00 43 1023.9
20260508184813 54 106 0.0 0.0 0.00 0.00 0.00 43 1023.8
20260508183911 55 108 0.0 0.0 0.00 0.00 0.00 44 1023.7
20260508180912 57 107 0.0 0.0 0.00 0.00 0.00 45 1023.5
20260508175912 58 108 0.0 0.0 0.00 0.00 0.00 45 1023.4
20260508175011 58 110 0.0 0.0 0.00 0.00 0.00 45 1023.2
20260508174109 59 99 0.0 0.0 0.00 0.00 0.00 45 1023.1
20260508172111 59 90 0.0 0.0 0.00 0.00 0.00 45 1022.9
20260508171110 59 112 0.0 0.0 0.00 0.00 0.00 45 1022.9
20260508165210 59 110 0.0 0.0 0.00 0.00 0.00 44 1022.7
20260508164225 59 106 0.0 0.0 0.00 0.00 0.00 44 1022.9
20260508161312 60 112 0.0 0.0 0.00 0.00 0.00 43 1022.9
20260508160312 61 101 0.0 0.0 0.00 0.00 0.00 43 1022.8
20260508155312 61 110 0.0 0.0 0.00 0.00 0.00 43 1022.7
20260508154411 60 110 0.0 0.0 0.00 0.00 0.00 44 1022.9
20260508153410 59 107 0.0 0.0 0.00 0.00 0.00 44 1023.0
20260508152410 60 101 0.0 0.0 0.00 0.00 0.00 42 1023.1
20260508151412 61 112 0.0 0.0 0.00 0.00 0.00 42 1022.9
20260508150411 62 14 0.0 0.0 0.00 0.00 0.00 42 1022.9
20260508144412 61 111 0.0 0.0 0.00 0.00 0.00 42 1022.9
20260508143412 60 159 0.0 0.0 0.00 0.00 0.00 42 1023.1
20260508143312 60 109 0.0 0.0 0.00 0.00 0.00 42 1023.1
20260508141312 61 65 0.0 0.0 0.00 0.00 0.00 42 1023.3
20260508140410 60 112 0.0 0.0 0.00 0.00 0.00 42 1023.2
20260508134411 61 80 0.0 0.0 0.00 0.00 0.00 41 1023.3
20260508133412 62 42 0.0 0.0 0.00 0.00 0.00 41 1023.3
20260508132427 62 337 0.0 0.0 0.00 0.00 0.00 41 1023.3
20260508131412 61 31 0.0 0.0 0.00 0.00 0.00 42 1023.4